| time (UTC) | temp C | wind direction | speed KPH | gust KPH | rain 1hr cm | rain 24hr cm | rain mn cm | humidity % | barometer mb |
| 20260507110914 | 20 | 255 | 8.0 | 17.7 | 0.00 | 0.00 | 0.00 | 58 | 1014.1 |
| 20260507100911 | 20 | 269 | 9.7 | 19.3 | 0.00 | 0.00 | 0.00 | 59 | 1014.2 |
| 20260507090909 | 21 | 174 | 12.9 | 20.9 | 0.00 | 0.00 | 0.00 | 53 | 1014.1 |
| 20260507080905 | 20 | 200 | 12.9 | 24.1 | 0.00 | 0.00 | 0.00 | 56 | 1013.3 |
| 20260507070900 | 20 | 139 | 8.0 | 19.3 | 0.00 | 0.00 | 0.00 | 57 | 1013.3 |
| 20260507060857 | 18 | 238 | 3.2 | 11.3 | 0.00 | 0.00 | 0.00 | 61 | 1013.1 |
| 20260507050853 | 17 | 352 | 1.6 | 6.4 | 0.00 | 0.00 | 0.00 | 65 | 1012.6 |
| 20260507040850 | 13 | 137 | 1.6 | 6.4 | 0.00 | 0.00 | 0.00 | 77 | 1013.1 |
| 20260507030846 | 12 | 149 | 0.0 | 0.0 | 0.00 | 0.00 | 0.00 | 78 | 1012.4 |
| 20260507020843 | 15 | 100 | 0.0 | 0.0 | 0.00 | 0.00 | 0.00 | 72 | 1012.3 |
| 20260507010840 | 14 | 134 | 0.0 | 0.0 | 0.00 | 0.00 | 0.00 | 73 | 1011.9 |
| 20260507000836 | 15 | 170 | 0.0 | 0.0 | 0.00 | 0.00 | 0.00 | 70 | 1011.7 |
| 20260506230833 | 17 | 161 | 0.0 | 1.6 | 0.00 | 0.00 | 0.00 | 62 | 1011.7 |
| 20260506220829 | 20 | 347 | 0.0 | 1.6 | 0.00 | 0.00 | 0.00 | 52 | 1011.6 |
| 20260506210826 | 21 | 221 | 4.8 | 8.0 | 0.00 | 0.00 | 0.00 | 49 | 1011.8 |
| 20260506200822 | 22 | 143 | 8.0 | 12.9 | 0.00 | 0.00 | 0.00 | 46 | 1011.5 |
| 20260506190819 | 22 | 118 | 8.0 | 11.3 | 0.00 | 0.00 | 0.00 | 46 | 1011.7 |
| 20260506140803 | 25 | 175 | 4.8 | 11.3 | 0.00 | 0.00 | 0.00 | 39 | 1011.5 |
| 20260506130800 | 25 | 62 | 9.7 | 22.5 | 0.00 | 0.00 | 0.00 | 38 | 1012.0 |
| 20260506120756 | 25 | 248 | 8.0 | 24.1 | 0.00 | 0.00 | 0.00 | 39 | 1012.6 |